Flag for Germany Weather past 2 weeks in Sonneberg, Thuringia, Germany

Now
48 °F

Fog.


Feels Like: 45 °F
Forecast: 39 / 59 °F
Wind: 7 mph from East

Location: Hof Airport


UV Index: 3 (Moderate)

Visibility: 3 mi


Pressure: 29.83 "Hg

Humidity: 87%

Dew point: 45 °F

Location of SonnebergLocation

Historic Weather in Sonneberg

°F

Sonneberg temperature yesterday

Maximum temperature yesterday: 50 °F (at 6:50 PM)
Minimum temperature yesterday: 32 °F (at 3:50 AM)
Average temperature yesterday: 42 °F

Past Weeks' High & Low Weather Summary

 TemperatureHumidityPressure
High66 °F (Apr 7, 2:50 PM)94% (Apr 6, 1:20 AM)30.39 "Hg (Apr 6, 1:20 AM)
Low28 °F (Apr 17, 3:20 AM)30% (Apr 17, 3:20 PM)29.77 "Hg (Apr 18, 7:20 AM)
Average45 °F72%30.05 "Hg
* Reported Apr 5 1:20 AM — Apr 20 1:50 AM, Sonneberg, Weather by CustomWeather, © 2014

Note: Actual official high and low records may vary slightly from our data, if they occured in-between our weather recording intervals... More about our weather records

Advertising

Historic Weather Conditions — Data for Previous 24 hours

 ConditionsComfort  
Time TempWeatherWind HumidityBarometerVisibility
1:50 AM
Apr 20
50 °FFog.9 mph88%29.83 "Hg2 mi
1:20 AM50 °FFog.8 mph88%29.86 "Hg3 mi
12:50 AM50 °FFog.8 mph88%29.86 "Hg3 mi
12:20 AM50 °FFog.8 mph88%29.86 "Hg2 mi
11:50 PM
Apr 19
50 °FFog.7 mph88%29.89 "Hg2 mi
11:20 PM50 °FFog.7 mph88%29.89 "Hg2 mi
10:50 PM48 °FFog.9 mph87%29.89 "Hg2 mi
10:20 PM50 °FFog.8 mph88%29.89 "Hg2 mi
9:50 PM50 °FFog.3 mph88%29.89 "Hg3 mi
9:20 PM50 °FFog.3 mph88%29.89 "Hg3 mi
8:50 PM50 °FFog.6 mph88%29.89 "Hg3 mi
8:20 PM50 °FFog.8 mph82%29.89 "Hg3 mi
7:50 PM50 °FFog.10 mph82%29.89 "Hg3 mi
7:20 PM50 °FFog.14 mph82%29.89 "Hg4 mi
6:50 PM50 °FScattered clouds.13 mph82%29.89 "Hg4 mi
6:20 PM48 °FFog.10 mph82%29.92 "Hg3 mi
5:50 PM46 °FFog.15 mph87%29.92 "Hg2 mi
5:20 PM46 °FFog.17 mph87%29.92 "Hg2 mi
4:20 PM45 °FFog.13 mph87%29.92 "Hg2 mi
3:50 PM45 °FFog.16 mph87%29.95 "Hg3 mi
3:20 PM45 °FLow clouds.16 mph87%29.95 "Hg4 mi
2:50 PM46 °FPartly sunny.17 mph76%29.95 "Hg5 mi
2:20 PM46 °FPartly sunny.15 mph82%29.95 "Hg5 mi
1:50 PM46 °FPartly sunny.16 mph76%29.95 "Hg5 mi
1:20 PM45 °FOvercast.13 mph81%29.95 "Hg4 mi
12:50 PM45 °FLow clouds.15 mph81%29.98 "Hg4 mi
12:20 PM43 °FLow clouds.14 mph87%29.98 "Hg4 mi
11:50 AM41 °FFog.15 mph87%29.98 "Hg2 mi
11:20 AM39 °FFog.14 mph93%29.98 "Hg2 mi
10:50 AM39 °FFog.10 mph87%29.98 "Hg2 mi
10:20 AM37 °FFog.15 mph93%29.98 "Hg2 mi
9:50 AM37 °FFog.15 mph93%30.01 "Hg2 mi
9:20 AM37 °FFog.13 mph93%29.98 "Hg2 mi
8:50 AM37 °FFog.13 mph87%29.98 "Hg2 mi
8:20 AM37 °FFog.15 mph87%29.98 "Hg4 mi
7:50 AM36 °FFog.14 mph93%29.98 "Hg4 mi
7:20 AM36 °FFog.12 mph93%29.98 "Hg4 mi
6:50 AM34 °FFog.9 mph93%29.95 "Hg4 mi
6:20 AM34 °FMostly cloudy.8 mph93%29.95 "Hg3 mi
5:50 AM34 °FLow clouds.10 mph93%29.95 "Hg1 mi
4:50 AM32 °FFog.6 mph93%29.95 "Hg0 mi
4:20 AM32 °FFog.6 mph93%29.95 "Hg1 mi
3:50 AM32 °FFog.6 mph93%29.95 "Hg0 mi
3:20 AM34 °FFog.6 mph87%29.95 "Hg0 mi
Weather by CustomWeather, © 2014

See weather overview